Home > Weather > Royan > Past weeks

Flag for France Past Weather in Royan, Poitou-Charentes, France — Yesterday and Last 2 Weeks

Now
63 °F

Partly sunny.


Feels Like: 63 °F
Forecast: 59 / 66 °F
Wind: 8 mph from West

Location: Cognac Airport

Current Time: May 30, 2016 at 6:35:33 PM

Latest Report: May 30, 2016 at 6:00 PM


Visibility: 6 mi

Pressure: 29.98 "Hg

Humidity: 83%

Dew Point: 57 °F

Location of RoyanLocation

Past Weather in Royan — Graph

°F

Royan Temperature Yesterday

Maximum temperature yesterday: 64 °F (at 2:30 PM)
Minimum temperature yesterday: 59 °F (at 8:00 AM)
Average temperature yesterday: 61 °F

High & Low Weather Summary for the Past Weeks

 TemperatureHumidityPressure
High84 °F (May 21, 3:00 PM)100% (May 16, 7:00 AM)30.24 "Hg (May 16, 7:00 AM)
Low43 °F (May 16, 6:30 AM)32% (May 21, 4:30 PM)29.77 "Hg (May 22, 6:00 AM)
Average60 °F75%29.99 "Hg
* Reported May 15 5:00 PM — May 30 5:30 PM, Royan, Weather by CustomWeather, © 2016

Note: Actual official high and low records may vary slightly from our data, if they occured in-between our weather recording intervals... More about our weather records

Advertising

Royan Weather History for the Previous 24 Hours

Scroll right to see more
 ConditionsComfort  
Time TempWeatherWind HumidityBarometerVisibility
5:30 PM
Mon, May 30
63 °FPartly sunny.8 mph83%29.98 "HgN/A
5:00 PM63 °FMostly cloudy.8 mph83%29.98 "HgN/A
4:30 PM63 °FBroken clouds.8 mph83%29.98 "HgN/A
4:00 PM61 °FLight rain. Partly sunny.7 mph94%29.98 "HgN/A
3:30 PM61 °FLight rain. Mostly cloudy.8 mph94%29.95 "HgN/A
3:00 PM59 °FLight rain. Cloudy.9 mph94%29.95 "HgN/A
2:30 PM59 °FLight rain. Mostly cloudy.10 mph94%29.95 "HgN/A
2:00 PM59 °FLight rain. Mostly cloudy.10 mph94%29.95 "Hg4 mi
1:30 PM59 °FDrizzle. Mostly cloudy.14 mph88%29.95 "HgN/A
1:00 PM61 °FMostly cloudy.14 mph88%29.95 "HgN/A
12:30 PM61 °FLow clouds.13 mph83%29.95 "HgN/A
12:00 PM59 °FMostly cloudy.15 mph88%29.95 "HgN/A
11:30 AM59 °FDrizzle. Partly sunny.12 mph94%29.95 "HgN/A
11:00 AM59 °FDrizzle. Cloudy.12 mph88%29.95 "HgN/A
10:30 AM59 °FDrizzle. Mostly cloudy.10 mph88%29.95 "HgN/A
10:00 AM59 °FLight rain. Broken clouds.10 mph88%29.92 "Hg5 mi
9:30 AM59 °FDrizzle. Mostly cloudy.13 mph88%29.92 "HgN/A
9:00 AM59 °FLight rain. Mostly cloudy.12 mph94%29.92 "Hg4 mi
8:30 AM57 °FLight rain. Partly sunny.10 mph94%29.92 "Hg5 mi
8:00 AM57 °FLight rain. Partly sunny.9 mph94%29.92 "Hg4 mi
7:30 AM57 °FLight rain. Partly sunny.10 mph94%29.92 "Hg4 mi
7:00 AM57 °FLight rain. Mostly cloudy.9 mph94%29.92 "Hg4 mi
6:30 AM57 °FLight rain. Overcast.9 mph94%29.92 "Hg4 mi
6:00 AM57 °FDrizzle. Mostly cloudy.9 mph94%29.92 "Hg6 mi
5:30 AM57 °FMostly cloudy.9 mph94%29.92 "HgN/A
5:00 AM57 °FMostly cloudy.8 mph94%29.92 "HgN/A
4:30 AM57 °FMostly cloudy.8 mph94%29.92 "HgN/A
4:00 AM57 °FPassing clouds.7 mph94%29.92 "HgN/A
3:30 AM57 °FPartly cloudy.13 mph94%29.92 "Hg4 mi
3:00 AM57 °FMostly cloudy.10 mph94%29.92 "HgN/A
2:30 AM57 °FMostly cloudy.9 mph94%29.95 "HgN/A
2:00 AM57 °FOvercast.10 mph94%29.95 "HgN/A
1:30 AM57 °FPartly cloudy.10 mph94%29.95 "HgN/A
1:00 AM57 °FMostly cloudy.10 mph94%29.95 "HgN/A
12:30 AM57 °FLow clouds.9 mph94%29.95 "HgN/A
12:00 AM57 °FMostly cloudy.8 mph94%29.95 "HgN/A
11:30 PM
Sun, May 29
59 °FMostly cloudy.8 mph88%29.95 "HgN/A
11:00 PM59 °FMostly cloudy.7 mph88%29.95 "HgN/A
10:30 PM59 °FBroken clouds.9 mph88%29.95 "HgN/A
10:00 PM59 °FCloudy.8 mph88%29.92 "HgN/A
9:30 PM59 °FOvercast.10 mph88%29.92 "HgN/A
9:00 PM59 °FPartly sunny.12 mph88%29.92 "HgN/A
8:30 PM61 °FBroken clouds.14 mph83%29.92 "HgN/A
8:00 PM61 °FPartly sunny.12 mph88%29.89 "HgN/A
7:30 PM61 °FLight rain. Partly sunny.14 mph83%29.89 "HgN/A
7:00 PM61 °FBroken clouds.16 mph83%29.89 "HgN/A
6:30 PM63 °FMostly cloudy.15 mph77%29.89 "HgN/A
6:00 PM63 °FPartly sunny.16 mph77%29.89 "HgN/A
Weather by CustomWeather, © 2016

See weather overviewHow to use our weather pages